Location: Collingbourne Kingston
(51.3000°N, 1.6500°W)
Time: 18:31:39
(UTC+00:00)

Daily predictions for brighter satellites

Satellite Brightness Start Highest point End
(mag) Time Altitude Azimuth Time Altitude Azimuth Time Altitude Azimuth
Cosmos 1656 Rocket 3.7 16:46:47 10° SSW 16:52:18 85° ESE 16:57:48 10° NNE
Cosmos 1340 Rocket 2.9 16:51:24 10° S 16:55:21 59° E 16:59:22 10° NNE
Okean O Rocket 2.3 16:52:33 10° S 16:56:54 61° WSW 17:01:15 10° NNW
Cosmos 1825 2.1 16:54:17 10° N 16:58:04 70° ENE 17:01:51 10° SSE
Cosmos 1125 Rocket 4.5 16:53:13 10° NNW 16:58:19 54° WSW 17:03:22 10° S
ALOS 3.2 16:54:09 10° S 16:58:44 56° W 17:03:21 10° NNW
GEOS 3 Rocket 4.4 16:54:21 10° NE 16:59:10 37° ESE 17:04:01 10° S
Cosmos 2123 Rocket 4.0 16:55:08 10° S 17:01:14 62° E 17:07:21 10° NNE
CZ-4 R/B 2.8 16:58:41 10° ESE 17:01:33 18° ENE 17:04:24 10° NNE
Cosmos 540 Rocket 4.4 16:57:24 10° SW 17:02:24 48° WNW 17:07:25 10° NNE
ATLAS 3B R/B 3.7 16:56:53 10° W 17:02:58 36° NNW 17:09:03 10° NE
Cosmos 1725 Rocket 4.1 16:59:32 10° N 17:05:55 84° ENE 17:12:15 10° S
Cosmos 2219 3.2 17:01:44 10° NNW 17:07:19 59° NE 17:12:51 10° SE
SMAP 3.1 17:03:02 10° SSE 17:07:38 64° ENE 17:12:16 10° N
Cosmos 1408 Rocket 3.9 17:03:50 10° NNW 17:08:15 72° W 17:12:39 10° S
Cosmos 2016 Rocket 4.3 17:04:37 10° NNW 17:11:01 76° W 17:17:21 10° S
Cosmos 1238 Rocket 3.2 17:06:48 10° N 17:11:37 52° ENE 17:15:33 10° SSE
Cosmos 1500 Rocket 3.5 17:08:46 10° N 17:13:10 64° ENE 17:17:29 10° SSE
Cosmos 2369 Rocket 3.4 17:09:33 10° WSW 17:14:47 39° NW 17:20:02 10° NNE
Cosmos 1689 Rocket 3.7 17:13:54 10° N 17:16:43 36° WNW 17:19:32 10° SW
Cosmos 1633 Rocket 4.4 17:15:43 10° NNE 17:18:55 19° ENE 17:22:05 10° ESE
Cosmos 1633 3.9 17:18:25 10° NNE 17:21:08 19° ENE 17:23:50 10° ESE
TELKOM 3 3.8 17:22:23 10° W 17:24:29 39° SSW 17:26:21 11° ESE
COSMO-SKYMED 1 3.8 17:21:47 10° NE 17:25:12 22° E 17:28:36 10° SE
Elektron 3 3.7 17:23:25 10° SW 17:26:46 88° NW 17:29:07 15° NE
COBE Rocket 4.2 17:23:12 10° NNE 17:27:51 43° E 17:32:21 10° SSE
Cosmos 1666 Rocket 4.5 17:24:58 10° N 17:28:43 26° ENE 17:32:25 10° SE
Cosmos 2344 3.6 17:21:18 10° SW 17:28:47 80° SE 17:37:16 10° NE
CSL-04 Rocket 4.3 17:24:06 10° ESE 17:28:51 33° ENE 17:33:34 10° N
Cosmos 1607 3.9 17:22:42 10° NW 17:28:56 74° NE 17:35:11 10° SE
Cosmos 1455 3.1 17:25:39 10° SSW 17:29:19 49° WNW 17:33:00 10° N
Cosmos 2227 Rocket 2.3 17:24:11 10° NNW 17:29:47 56° NE 17:35:21 10° SE
Aureole 2 Rocket 3.9 17:26:53 10° SW 17:30:03 36° WNW 17:33:22 10° N
Cosmos 2297 Rocket 2.2 17:24:39 10° NNW 17:30:17 60° NE 17:35:52 10° SE
Sich 1 3.5 17:31:11 10° N 17:35:14 37° ENE 17:39:17 10° SE
CZ-4B R/B 4.2 17:33:18 10° NNW 17:35:30 17° WNW 17:37:44 10° WSW
Cosmos 2084 3.7 17:33:55 10° NW 17:38:16 73° SW 17:42:28 10° SE
CORIOLIS 4.3 17:33:00 10° SSE 17:38:25 85° WSW 17:43:54 10° NNW
Meteor 2-2 Rocket 4.4 17:34:07 10° S 17:39:47 53° E 17:45:23 10° NNE
YAOGAN 6 3.0 17:37:29 10° SE 17:40:44 36° ENE 17:43:58 10° N
NOSS 7 (D) 4.1 17:40:01 10° SSW 17:42:51 49° SE 17:44:02 27° ENE
USA 215 3.3 17:37:19 13° E 17:43:16 66° NNE 17:49:46 10° WNW
H-2A R/B 3.2 17:40:59 10° S 17:44:49 66° WSW 17:48:39 10° NNW
Envisat 2.9 17:42:06 10° SSE 17:47:10 72° ENE 17:52:16 10° N
USA 229 DEB 4.1 17:43:47 10° S 17:49:51 41° ESE 17:54:26 18° ENE
USA 229 4.1 17:43:57 10° S 17:49:57 40° ESE 17:54:29 18° ENE
Cosmos 1862 3.9 17:46:45 10° N 17:50:23 33° ENE 17:54:00 10° SE
Cosmos 2034 Rocket 4.4 17:44:49 10° N 17:50:46 40° ENE 17:56:44 10° SE
Meteor 1-27 4.2 17:46:58 10° S 17:52:37 83° E 17:58:24 10° NNE
Cosmos 1943 Rocket 4.1 17:49:27 10° W 17:53:53 23° NW 17:58:22 10° NNE
Meteor 2-10 Rocket 4.2 17:49:36 10° SSW 17:54:30 54° WNW 17:59:29 10° N
NOSS 3-1 (A) 4.4 17:50:57 10° SSE 17:55:24 25° ESE 17:57:11 22° E
Cosmos 2263 Rocket 3.5 17:51:58 10° NNW 17:56:02 20° NE 17:57:19 19° NE
Cosmos 2082 3.7 17:50:33 10° NNW 17:56:07 57° NE 18:01:38 10° SE
Genesis I 3.4 17:52:20 10° SSW 17:56:16 55° SE 17:58:14 27° ENE
NOSS 3-1 (C) 3.9 17:51:28 10° S 17:56:34 37° ESE 17:59:56 21° ENE
YAOGAN 1 2.8 17:53:34 10° SE 17:57:43 46° ENE 18:01:52 10° N
Okean-O 3.0 17:57:05 10° S 18:01:29 66° WSW 18:05:55 10° NNW
Cosmos 2221 3.0 17:59:37 10° SSW 18:03:54 63° WNW 18:08:14 10° N
SeaSat 1 3.4 18:03:02 10° S 18:07:50 50° WSW 18:12:39 10° NW
USA 116 4.5 18:09:07 24° NE 18:11:20 40° E 18:15:55 10° S
Cosmos 1697 Rocket 3.5 18:06:54 10° SSE 18:11:37 28° ESE 18:12:05 28° E
Cosmos 1356 Rocket 3.4 18:08:05 10° S 18:12:10 61° E 18:15:46 14° NNE
Geosat 4.0 18:08:09 13° NNE 18:12:46 88° WNW 18:17:48 10° SSW
SKYMED 2 3.5 18:09:19 10° NNE 18:13:39 61° E 18:17:57 10° S
CZ-3B R/B 2.9 18:12:52 10° W 18:15:16 54° N 18:15:42 48° NNE
CZ-4 R/B 4.4 18:11:20 10° SSE 18:15:28 90° ENE 18:19:39 10° NNW
ATLAS 5 CENTAUR R/B 2.6 18:10:53 10° NW 18:16:30 69° SW 18:22:59 10° SSE
Lacrosse 4 Rocket 3.0 18:13:54 10° SSE 18:15:35 18° SE 18:15:35 18° SE
Cosmos 1680 Rocket 4.4 18:16:45 10° SSE 18:20:18 28° ESE 18:20:18 28° ESE
Cosmos 1805 Rocket 4.3 18:21:54 10° NNW 18:26:09 53° W 18:30:23 10° S
Cosmos 1867 3.8 18:24:02 10° SW 18:29:28 68° NW 18:32:47 24° NNE
H-2A R/B 3.6 18:31:12 21° NNE 18:31:12 21° NNE 18:33:48 10° N
Ariane Rocket 3.2 18:28:23 35° ESE 18:30:06 49° ENE 18:35:00 10° N
Cosmos 724 4.2 18:30:08 10° NW 18:36:01 70° NE 18:38:19 38° ESE
CZ-4 R/B 1.9 18:32:05 10° S 18:36:12 61° WSW 18:40:17 10° NNW
GEOS 3 Rocket 4.0 18:34:17 24° NNE 18:37:25 60° NW 18:42:35 10° WSW
CENTAUR R/B 3.9 18:33:17 10° WNW 18:39:38 33° N 18:42:52 25° NE
Cosmos 1869 4.1 18:37:06 10° SSW 18:40:58 50° WNW 18:44:49 10° N
Cosmos 1464 Rocket 4.1 18:34:52 10° NNW 18:41:04 75° W 18:47:10 10° S
NOAA 11 4.0 18:36:47 10° SSE 18:42:12 79° ENE 18:47:40 10° NNW
Cosmos 773 Rocket 4.4 18:38:03 10° SW 18:43:09 60° WNW 18:47:24 15° NNE
MOS 1 4.4 18:43:14 46° E 18:43:41 47° ENE 18:49:05 10° N
CZ-2D R/B 3.2 18:44:40 74° NNE 18:44:40 74° NNE 18:48:17 10° NNW
Cosmos 923 Rocket 4.0 18:39:45 10° S 18:44:51 56° ESE 18:45:14 55° E
Cosmos 2056 Rocket 3.5 18:43:05 10° NNW 18:48:06 55° ENE 18:48:06 55° ENE
Cosmos 1624 Rocket 4.0 18:43:01 10° NNW 18:48:19 58° ENE 18:48:43 57° E
Cosmos 1656 3.5 18:44:54 10° SSW 18:50:28 83° ESE 18:52:28 41° NE
Cosmos 1939 Rocket 2.8 18:53:38 85° SSW 18:53:43 87° WSW 18:57:54 10° NNW
ATLAS 3B R/B 3.8 18:49:49 10° NW 18:55:29 28° N 18:57:16 25° NNE
Cosmos 1633 4.0 18:52:43 10° NNW 18:56:09 38° W 18:59:33 10° SSW
Cosmos 1538 Rocket 4.5 18:51:52 10° SW 18:57:04 61° WNW 19:00:37 21° NNE
Cosmos 1633 Rocket 3.6 18:52:46 10° NNW 18:57:06 58° W 19:01:26 10° S
COSMO-SKYMED 1 3.5 18:57:26 10° N 19:01:38 48° WNW 19:05:48 10° SW
DMSP B5D1-3 4.4 19:11:57 78° NNE 19:12:18 89° E 19:17:29 10° SSW
Cosmos 2227 Rocket 4.0 19:08:41 10° NW 19:13:34 30° WSW 19:18:25 10° SSW
Cosmos 2297 Rocket 4.1 19:09:14 10° NW 19:13:59 28° WSW 19:18:42 10° SSW
Gblst 52 Del rocket 4.2 19:07:35 10° W 19:14:24 88° N 19:15:03 73° E
Cosmos 1980 Rocket 3.9 19:09:10 10° S 19:10:50 20° S 19:10:50 20° S
USA 215 3.4 19:24:41 49° SSE 19:26:21 65° SW 19:32:53 10° WNW
BREEZE-M DEB (TANK) 3.9 19:24:46 10° W 19:28:14 33° WSW 19:28:14 33° WSW
Cosmos 2369 3.7 19:25:13 10° SSW 19:30:30 76° WSW 19:30:30 76° WSW
USA 229 DEB 3.9 19:33:57 10° WSW 19:40:33 63° NW 19:41:54 53° N
USA 229 3.9 19:34:05 10° WSW 19:40:39 63° NW 19:41:57 54° N
Cosmos 2263 Rocket 3.0 19:35:24 10° NNW 19:39:01 41° NNW 19:39:01 41° NNW
NOSS 3-1 (A) 3.6 19:39:45 10° SW 19:44:40 67° WSW 19:44:40 67° WSW
NOSS 3-1 (C) 3.8 19:41:23 10° WSW 19:47:06 60° NW 19:47:21 60° NNW
Cosmos 1697 Rocket 3.5 19:49:38 10° SW 19:53:53 47° WSW 19:53:53 47° WSW
Lacrosse 4 Rocket 4.2 19:51:34 10° SW 19:51:57 12° SW 19:51:57 12° SW
Cosmos 1634 Rocket 4.4 19:53:36 10° NNW 19:59:17 60° WNW 19:59:17 60° WNW
H-2A R/B 4.0 20:11:50 24° NNW 20:11:50 24° NNW 20:13:56 10° NNW
CENTAUR R/B 3.8 20:24:39 10° NW 20:30:03 43° N 20:30:03 43° N
ATLAS 3B R/B 4.2 20:41:18 10° NW 20:44:31 28° NNW 20:44:31 28° NNW
